Tracking 19485 objects as of 21-Jan-2019
HD Live streaming from Space Station
objects crossing your sky now

SIMSAT 1

Track SIMSAT 1 now!
10-day predictions
SIMSAT 1 is classified as:


NORAD ID: 26365
Int'l Code: 2000-026A
Perigee: 512.3 km
Apogee: 527.1 km
Inclination: 86.3 °
Period: 94.9 minutes
Semi major axis: 6890 km
RCS: 1.4243 m2 (large)
Launch date: May 16, 2000
Source: Commonwealth of Independent States (former USSR) (CIS)
Launch site: PLESETSK MISSILE AND SPACE COMPLEX (PKMTR)
aabbcc
Your satellite tracking list
Your tracking list is empty




NASA's NSSDC Master Catalog

Two Line Element Set (TLE):
1 26365U 00026A   19020.94181892 +.00000144 +00000-0 +51879-5 0  9998
2 26365 086.3468 005.1855 0010755 020.0346 340.1316 15.17784809031435
Source of the keplerian elements: AFSPC